Iridium 39

operational
NORAD ID: 25042 Int'l Des: 1997-069 Owner: IRID Country: US Constellation: iridium
LEOCIRCULARPOLAR

About Iridium 39

Description loading...

Live Position

Loading 3D Globe...

Upcoming Passes

Altitude History

Altitude vs Time

uPlot chart will show altitude changes over time

Two-Line Element Set

1 25042U 97069D 25299.10384604 .00000743 00000-0 18874-3 0 9992
2 25042 86.3934 155.0602 0016095 225.0446 134.9454 14.49405293467920
Epoch: Oct 26, 2025 • Age: 9 hours

Current Status

Altitude 737.9 km
Velocity 7.49 km/s
Sub-Earth Point 53.50°N, 124.56°E
Launch Date Nov 9, 1997
Age 27.9 years
Type communications

Technical Details

Classification Payload
Mass 662.00 kg
Dry Mass 556.00 kg
Total Mass 662.00 kg
Length 3.50 m
Diameter 1.00 m
Span 5.00 m
Shape Box + 2 Pan
Manufacturer MOTO/LMMS
Bus Type LM700
Phase Status In Orbit
Owner/State IRID/US

Large Constellations

Loading constellations...